Temp
50 50 49 49 48 47 45 44 45 44 44 44 43 43 43 42 41 41 40 40 40 40
48 47 46 46 47 45 45 44 43 43 42 42 42 41 41 39 38 38 39 38 38 38
46 47 46 46 44 43 43 43 42 41 41 41 40 39 39 38 38 36 37 38 37 37
45 45 45 44 43 42 42 41 40 40 39 38 37 37 37 36 36 34 34 36 35 34
44 43 43 42 42 41 40 40 39 38 37 36 36 35 34 34 34 33 33 33 33 32
42 42 42 41 41 40 39 38 36 36 35 34 33 33 34 33 33 33 33 32 31 31
41 42 42 41 40 38 38 36 35 34 33 32 32 32 32 31 31 32 32 32 31 30
42 42 41 38 36 35 34 35 34 32 31 31 30 31 29 30 30 29 29 30 30 30
40 38 35 33 32 31 31 30 29 28 28 28 30 30 27 28 27 28 28 27 28 28
36 33 32 31 30 29 29 29 28 27 27 26 27 28 27 27 26 26 27 26 26 26
33 31 30 29 28 28 29 27 26 26 26 25 26 27 26 26 25 26 26 26 25 25
32 30 29 26 26 27 26 25 24 24 21 21 21 25 24 24 24 24 24 26 26 26
32 30 27 27 25 26 25 24 24 22 22 19 18 22 24 24 23 21 23 24 27 28
31 28 28 26 25 23 21 22 19 19 19 19 18 18 23 24 22 22 22 23 24 26
MSLP
1027.15 1027.81 1028.35 1028.78 1028.90 1029.05 1029.60 1030.21 1030.58 1030.65 1030.86 1031.23 1031.32 1031.23 1031.55 1031.45 1031.44 1031.59 1031.59 1031.41 1031.39 1031.22
1027.45 1027.70 1028.15 1028.99 1029.24 1029.50 1029.95 1030.47 1030.66 1031.16 1031.22 1031.60 1031.57 1031.65 1031.79 1032.04 1032.02 1031.91 1031.97 1031.83 1031.84 1031.50
1027.97 1028.37 1028.54 1028.95 1029.48 1029.81 1030.22 1030.73 1031.15 1031.42 1031.81 1031.95 1032.00 1031.96 1032.02 1032.18 1032.00 1032.24 1032.02 1031.91 1031.86 1031.63
1027.96 1028.43 1028.65 1028.93 1029.41 1030.12 1030.59 1030.90 1031.38 1031.72 1031.97 1032.08 1032.47 1032.21 1032.02 1031.98 1032.22 1032.32 1032.33 1032.06 1031.95 1031.84
1028.09 1028.58 1028.78 1028.86 1029.54 1030.20 1030.45 1031.13 1031.27 1031.58 1032.18 1032.26 1032.66 1032.38 1032.36 1032.08 1032.29 1032.20 1032.28 1032.14 1032.07 1031.86
1027.90 1028.35 1028.49 1028.96 1029.62 1030.18 1030.31 1030.86 1031.31 1031.42 1031.98 1032.27 1032.69 1032.50 1032.38 1032.26 1032.25 1032.18 1032.24 1032.14 1032.04 1031.82
1027.84 1028.33 1028.50 1028.85 1029.50 1029.97 1030.50 1030.89 1031.11 1031.42 1031.79 1032.16 1032.50 1032.27 1032.25 1032.27 1032.16 1032.08 1032.08 1031.98 1031.82 1031.71
1027.32 1027.86 1028.30 1028.77 1029.49 1029.96 1030.68 1030.98 1031.19 1031.48 1031.67 1032.13 1032.10 1031.98 1032.20 1032.19 1032.09 1032.08 1031.86 1031.72 1031.60 1031.48
1027.02 1027.51 1028.06 1028.84 1029.58 1030.14 1030.70 1031.14 1031.56 1031.58 1031.69 1031.80 1031.77 1031.93 1032.23 1032.16 1032.11 1031.94 1031.71 1031.45 1031.24 1031.10
1026.70 1027.51 1027.99 1028.64 1029.20 1029.88 1030.33 1030.80 1031.17 1031.09 1031.42 1031.69 1031.74 1031.90 1032.07 1032.01 1031.94 1031.59 1031.33 1031.14 1030.91 1030.71
1026.22 1027.36 1028.00 1028.43 1028.89 1029.42 1029.90 1030.34 1030.54 1030.92 1031.14 1031.49 1031.51 1031.60 1031.81 1031.81 1031.48 1031.08 1030.85 1030.67 1030.61 1030.31
1025.59 1026.43 1027.24 1027.98 1028.48 1029.00 1029.54 1029.99 1030.23 1030.65 1031.15 1031.46 1031.42 1031.30 1031.38 1031.27 1031.04 1030.56 1030.29 1030.08 1029.92 1029.75
1024.81 1025.50 1026.11 1027.11 1027.96 1028.50 1028.93 1029.37 1029.83 1030.26 1030.63 1031.06 1031.23 1031.07 1030.85 1030.79 1030.55 1030.08 1029.73 1029.40 1029.06 1028.84
1024.27 1025.04 1025.66 1026.74 1027.48 1027.93 1028.69 1029.10 1029.54 1029.93 1030.27 1030.47 1030.55 1030.56 1030.17 1030.06 1029.93 1029.54 1029.09 1028.76 1028.42 1028.24
Wind_Speed
9 6 6 7 7 6 6 6 7 7 7 8 7 7 5 4 4 5 4 7 5 5
9 8 9 8 8 6 7 6 6 6 5 5 5 6 5 4 4 5 5 5 5 5
8 8 9 8 7 7 7 6 5 4 3 3 4 4 4 3 4 5 3 4 6 6
8 9 8 7 8 7 6 5 4 3 2 2 2 3 3 3 4 5 5 6 6 7
9 8 8 8 7 6 7 5 5 4 2 1 1 2 2 3 4 4 6 6 7 8
9 9 8 8 8 7 7 7 5 4 3 2 1 1 2 3 4 5 6 7 7 8
10 9 9 9 8 7 6 7 6 5 4 3 2 2 2 4 5 6 6 7 7 8
11 10 9 8 7 6 5 5 5 5 4 4 3 2 3 4 5 7 8 7 8 8
12 9 7 8 7 7 6 6 6 5 4 4 3 5 6 6 6 7 8 8 8 8
9 9 9 9 8 8 8 7 6 5 4 5 6 7 9 9 6 7 8 8 9 9
10 11 10 9 9 8 7 7 6 6 5 6 6 9 10 10 8 8 8 9 9 10
13 12 11 10 10 8 7 6 5 5 5 6 7 10 11 9 7 8 8 9 9 9
12 12 12 11 10 8 6 6 6 6 7 7 7 11 12 9 6 7 7 8 9 12
10 10 9 9 7 7 6 6 6 6 6 7 8 9 13 12 7 6 6 6 6 6
Wind_Direction
114 113 108 110 118 112 112 99 82 72 61 50 42 36 26 30 27 14 6 3 356 339
131 136 124 120 114 109 108 104 90 75 75 56 49 34 12 19 21 1 356 347 347 334
137 135 131 130 123 116 113 113 104 94 73 58 44 33 11 9 15 349 349 337 329 331
151 148 143 136 129 128 125 128 121 114 102 78 33 28 10 12 351 336 329 326 330 319
160 161 158 146 144 145 145 151 150 146 150 98 9 9 346 345 328 320 317 321 317 315
177 178 168 159 158 168 162 167 161 168 172 172 244 294 299 324 309 312 307 311 312 314
186 185 177 170 173 171 179 178 180 179 181 198 226 242 260 294 300 300 300 301 303 303
189 188 180 171 172 165 183 188 190 188 194 217 232 237 280 291 297 294 297 295 294 296
190 180 165 161 172 174 185 190 199 205 207 240 246 235 255 276 287 287 286 290 295 299
175 169 174 173 177 187 192 196 207 206 212 242 250 250 257 269 272 281 284 290 295 300
171 182 180 178 187 189 191 197 204 211 218 240 248 248 258 270 274 274 277 280 286 290
186 184 181 188 190 189 189 195 201 207 215 230 249 251 253 264 272 270 274 275 274 280
186 188 190 190 185 179 183 196 202 213 217 224 246 254 252 255 264 268 269 273 275 276
184 188 183 174 173 164 178 195 198 218 230 233 233 245 248 248 251 259 269 273 282 283